Regional Weather Roundup
Issued by NWS

Home | Current Version | Previous Version | Text Only | Print | Product List | Glossary On
Versions: 1 2 3 4 5 6 7 8 9 10 11 12 13 14 15 16 17 18 19 20 21 22 23 24 25 26 27 28 29 30 31 32 33 34 35 36 37 38 39 40 41 42 43 44 45 46 47 48 49 50
957
ASUS44 KFWD 182315
RWRTX
NORTH TEXAS HOURLY WEATHER ROUNDUP
NATIONAL WEATHER SERVICE FORT WORTH TX
500 PM CST SAT NOV 18 2017

NOTE: "FAIR" INDICATES FEW OR NO CLOUDS BELOW 12,000 FEET WITH NO
SIGNIFICANT WEATHER AND/OR OBSTRUCTIONS TO VISIBILITY.

TXZ118-119-190000-
DALLAS/FORT WORTH METROPLEX

CITY           SKY/WX    TMP DP  RH WIND       PRES   REMARKS
DFW AIRPORT    MOCLDY    60  38  43 N21       30.12R
DALLAS LOVE    MOCLDY    60  38  43 N20G30    30.13R
FTW MEACHAM    MOCLDY    60  36  40 NW18G32   30.14R
DAL-EXECUTIVE  PTCLDY    59  39  47 N20G28    30.11
FTW-ALLIANCE   CLOUDY    59  36  42 N20G38    30.14R
FTW-NAS-JRB    MOCLDY    61  35  37 N23G29    30.15R
FTW-SPINKS     CLEAR     59  36  41 N18G31    30.15R
ARLINGTON      PTCLDY    59  37  44 NW24G33   30.12R
GRAND PRAIRIE  CLEAR     61  36  39 N15G25    30.14R
ADDISON        PTCLDY    63  36  36 N25G31    30.14R
MESQUITE       PTCLDY    57  37  47 N18G28    30.12R
LANCASTER      PTCLDY    59  38  44 N23G33    30.12R
$$

TXZ091>094-102>105-117-120-121-131>134-190000-
NORTH CENTRAL TEXAS

CITY           SKY/WX    TMP DP  RH WIND       PRES   REMARKS
SHRMAN/DENISON MOCLDY    54  35  47 N14G26    30.16R
GAINESVILLE    CLEAR     55  33  44 NW20      30.18R
BOWIE          CLEAR     55  34  46 N20       30.19R
DECATUR        CLOUDY    55  33  42 N13G23    30.16R
DENTON         CLOUDY    57  36  45 N20G30    30.15R
MCKINNEY       PTCLDY    57  39  51 N21G28    30.14R
BONHAM         PTCLDY   N/A N/A N/A N14G24    30.14R
GREENVILLE     MOCLDY    59  37  44 NW20G28   30.13R
ROCKWALL       PTCLDY    58  40  51 N17G24    30.12R
TERRELL        PTCLDY    60  39  45 N17G25    30.11R
WAXAHACHIE     PTCLDY    59  40  49 N18G28    30.12R
CLEBURNE       PTCLDY    59  36  41 N22G32    30.15R
GRANBURY       PTCLDY    61  36  38 N22       30.17R
$$

TXZ083>090-098>101-113>116-127>130-139>142-154-155-190000-
WESTERN NORTH TEXAS

CITY           SKY/WX    TMP DP  RH WIND       PRES   REMARKS
WICHITA FALLS  CLEAR     56  32  40 N21G29    30.22R
WF-KICKAPOO    PTCLDY    57  32  38 N18G29    30.24R
VERNON         CLEAR     60  20  21 N15G23    30.23R
ABILENE        CLOUDY    58  30  34 N21G28    30.21R
ABILENE-DYESS  CLOUDY    59  34  39 N15G28      N/A
GRAHAM           N/A     57  31  38 N20G30    30.18R
BRECKENRIDGE   CLOUDY    60  30  32 N18G31    30.20R
CISCO          PTCLDY    59  34  38 N16G24    30.19R
EASTLAND       CLOUDY    58  32  37 N20G29    30.19R
RANGER         CLOUDY    58  34  40 N15G26    30.19R
MINERAL WELLS  CLOUDY    58  32  37 N23G30    30.16R
STEPHENVILLE   MOCLDY    60  32  35 N20G35    30.18R
COMANCHE       PTCLDY    59  34  39 N21G32    30.17R
BROWNWOOD      PTCLDY    59  32  36 N14G28    30.18R
COLEMAN        PTCLDY    60  31  33 N23G32    30.19R
$$

TXZ143>147-156>162-174-175-190000-
CENTRAL TEXAS

CITY           SKY/WX    TMP DP  RH WIND       PRES   REMARKS
WACO           CLOUDY    64  40  41 N24G31    30.09R
WACO-TSTC      CLEAR     64  41  42 N21G32    30.09R
WACO-MCGREGOR  CLOUDY    64  42  44 N25       30.11R
HILLSBORO      PTCLDY    62  41  45 N22G29    30.11R
CORSICANA      PTCLDY    62  42  47 N15       30.10R
MEXIA          CLOUDY    64  40  41 N20G30    30.07R
HEARNE         CLEAR     69  41  36 NW22G28   30.05R
CAMERON        CLEAR     68  39  34 N25G31    30.06R
TEMPLE         PTCLDY    67  39  35 N22G30    30.08R
KILLEEN        CLEAR     65  37  36 N23G32    30.09R
KILLEEN-SKYLRK PTCLDY    66  39  37 N21G28    30.09R
FORT HOOD      PTCLDY    65  38  36 N24G31    30.06R
GATESVILLE     MOCLDY    64  39  39 N12G18    30.13R
HAMILTON       PTCLDY    62  34  35 N21G30    30.15R
LAMPASAS       MOCLDY    63  39  41 N15G21    30.11R
$$

TXZ095>097-106>112-122>126-135>138-148>153-164>167-190000-
EAST TEXAS

CITY           SKY/WX    TMP DP  RH WIND       PRES   REMARKS
PARIS          CLOUDY    54  38  54 N22G29    30.12R
SULPHUR SPRNGS PTCLDY    57  40  54 N25G32    30.13R
MOUNT PLEASANT CLEAR     57  41  54 N18G29    30.09R
GILMER         CLOUDY    59  41  52 NW13G25   30.06R
MINEOLA        PTCLDY    59  41  51 N20G28    30.09R
TYLER          PTCLDY    60  41  49 N17G32    30.05R
LONGVIEW       PTCLDY    63  45  51 N23G35    30.02R
MARSHALL       CLOUDY    63  41  45 N21G28    30.04R
ATHENS         CLOUDY    59  37  44 N13G28    30.06R
PALESTINE      PTCLDY    65  42  43 NW16G25   30.05R
JACKSONVILLE   PTCLDY    64  44  46 N12G24    30.04R
HENDERSON      CLOUDY    64  43  45 NW10G22   30.03R
CENTER         CLEAR     66  42  41 NW12G29   29.98R
NACOGDOCHES    CLEAR     68  46  45 N17G25    29.99R
LUFKIN         CLEAR     69  46  43 NW15G28   29.97R
$$

SUPPLEMENTAL OBSERVATIONS (NWS FORT WORTH AREA)

CITY           SKY/WX    TMP DP  RH WIND       PRES   REMARKS
DENISON DAM      N/A     55  36  47 N29         N/A
CADDO GRASSLND   N/A     54  34  47 N5G16       N/A
PAT MAYSE LAKE   N/A     54  32  43 NW15        N/A
GREENVILLE       N/A     55  37  50 N16G30      N/A
CEDAR HILL       N/A     59  37  44 N12G26      N/A
LBJ GRASSLAND    N/A     55  32  41 N9G30       N/A
POSSUM KINGDOM   N/A     57  32  38 N17G28      N/A
GRANBURY         N/A     61  36  39 N21G33      N/A
COMANCHE         N/A     57  32  38 N20G32      N/A
MCGREGOR         N/A     64  39  39 N14G28      N/A
TEMPLE           N/A     66  36  32 N25G35      N/A
LAKE LIMESTONE   N/A     66  41  39 N15G26      N/A
ATHENS           N/A     61  43  51 NW7G17      N/A
$$

SUPPLEMENTAL OBSERVATIONS (NWS NORMAN AREA)

CITY           SKY/WX    TMP DP  RH WIND       PRES   REMARKS
GOODLETT         N/A     57  18  21 N15G21    30.24R
ODELL            N/A     57  25  29 N13       30.25R
CROWELL          N/A     58  25  27 N16       30.25R
KNOX CITY        N/A     59  24  26 N17G23    30.25R
SEYMOUR          N/A     58  30  34 N14       30.24R
MILLERS CREEK    N/A     57  30  35 N14G28      N/A
$$

SUPPLEMENTAL OBSERVATIONS (NWS SAN ANGELO AREA)

CITY           SKY/WX    TMP DP  RH WIND       PRES   REMARKS
WEINERT          N/A     58  28  32 N15       30.24R
HASKELL          N/A     58  25  28 N18G24    30.24R
THROCKMORTON     N/A     57  31  37 N14G21    30.24R
STAMFORD         N/A     59  29  33 N15       30.24R
CLYDE            N/A     56  32  40 N13       30.23R
HAMBY            N/A     57  30  35 N13G23      N/A
IVIE RESERVOIR   N/A     61  32  33 N20G28      N/A
COLORADO BEND    N/A     63  34  34 N12G24      N/A
$$

SUPPLEMENTAL OBSERVATIONS (NWS SHREVEPORT AREA)

CITY           SKY/WX    TMP DP  RH WIND       PRES   REMARKS
TEXARKANA        N/A     57  41  54 NW10G24     N/A
LINDEN           N/A     57  39  51 NW7G26      N/A
CADDO LAKE       N/A     63  43  48 N7G22       N/A
HENDERSON        N/A     64  41  42 N16G26      N/A
LUFKIN           N/A     68  46  45 MISG        N/A
N SABINE NF      N/A     68  46  45 MISG        N/A
$$

SUPPLEMENTAL OBSERVATIONS ARE A COLLECTION OF AUTOMATED INSTRUMENTS
THAT ARE MAINTAINED BY A VARIETY OF FEDERAL AND STATE AGENCIES.
CERTAIN ELEMENTS...SUCH AS HUMIDITY VALUES AND SUSTAINED WIND
SPEEDS...MAY BE APPROXIMATED.





USA.gov is the U.S. government's official web portal to all federal, state and local government web resources and services.